| time (UTC) | temp C | wind direction | speed KPH | gust KPH | rain 1hr cm | rain 24hr cm | rain mn cm | humidity % | barometer mb |
| 20260507125747 | 11 | 360 | 12.9 | 17.7 | 0.00 | 0.00 | 0.00 | 10 | 1027.3 |
| 20260507122744 | 10 | 270 | 11.3 | 16.1 | 0.00 | 0.00 | 0.00 | 10 | 1027.3 |
| 20260507115743 | 10 | 360 | 9.7 | 19.3 | 0.00 | 0.00 | 0.00 | 10 | 1027.1 |
| 20260507112742 | 10 | 360 | 12.9 | 19.3 | 0.00 | 0.00 | 0.00 | 10 | 1027.4 |
| 20260507105743 | 11 | 315 | 9.7 | 16.1 | 0.00 | 0.00 | 0.00 | 10 | 1027.4 |
| 20260507102744 | 11 | 360 | 6.4 | 12.9 | 0.00 | 0.00 | 0.00 | 10 | 1027.1 |
| 20260507095742 | 11 | 360 | 4.8 | 11.3 | 0.00 | 0.00 | 0.00 | 10 | 1027.4 |
| 20260507082743 | 11 | 360 | 3.2 | 9.7 | 0.00 | 0.00 | 0.00 | 10 | 1027.1 |
| 20260507072746 | 10 | 360 | 4.8 | 8.0 | 0.00 | 0.00 | 0.00 | 10 | 1027.0 |
| 20260507065744 | 10 | 45 | 1.6 | 9.7 | 0.00 | 0.00 | 0.00 | 10 | 1027.0 |
| 20260507062746 | 8 | 45 | 3.2 | 9.7 | 0.00 | 0.00 | 0.00 | 17 | 1026.9 |
| 20260507055743 | 6 | 90 | 1.6 | 9.7 | 0.00 | 0.00 | 0.00 | 55 | 1026.9 |
| 20260507052745 | 6 | 90 | 1.6 | 9.7 | 0.00 | 0.00 | 0.00 | 66 | 1026.8 |
| 20260507045742 | 6 | 90 | 1.6 | 9.7 | 0.00 | 0.00 | 0.00 | 81 | 1026.6 |
| 20260507035743 | 4 | 360 | 4.8 | 9.7 | 0.00 | 0.00 | 0.00 | 99 | 1026.5 |
| 20260507032743 | 4 | 360 | 4.8 | 8.0 | 0.00 | 0.00 | 0.00 | 99 | 1026.3 |
| 20260507022742 | 4 | 45 | 1.6 | 6.4 | 0.00 | 0.00 | 0.00 | 93 | 1026.0 |
| 20260507015744 | 4 | 45 | 0.0 | 4.8 | 0.00 | 0.00 | 0.00 | 92 | 1026.0 |
| 20260507012743 | 5 | 360 | 3.2 | 11.3 | 0.00 | 0.00 | 0.00 | 81 | 1026.0 |
| 20260507005743 | 5 | 45 | 3.2 | 9.7 | 0.00 | 0.00 | 0.00 | 73 | 1026.0 |
| 20260507002743 | 5 | 45 | 3.2 | 14.5 | 0.00 | 0.00 | 0.00 | 66 | 1025.8 |
| 20260506235741 | 5 | 360 | 3.2 | 14.5 | 0.00 | 0.00 | 0.00 | 66 | 1025.9 |
| 20260506232743 | 5 | 360 | 9.7 | 17.7 | 0.00 | 0.00 | 0.00 | 70 | 1025.5 |
| 20260506222743 | 5 | 292 | 9.7 | 14.5 | 0.00 | 0.00 | 0.00 | 30 | 1025.5 |
| 20260506215744 | 5 | 360 | 6.4 | 14.5 | 0.00 | 0.00 | 0.00 | 13 | 1025.5 |
| 20260506205743 | 5 | 360 | 8.0 | 19.3 | 0.00 | 0.00 | 0.00 | 13 | 1025.4 |
| 20260506202742 | 6 | 360 | 16.1 | 27.4 | 0.00 | 0.00 | 0.00 | 13 | 1025.1 |
| 20260506195743 | 6 | 360 | 16.1 | 27.4 | 0.00 | 0.00 | 0.00 | 13 | 1025.1 |
| 20260506192744 | 6 | 315 | 16.1 | 32.2 | 0.00 | 0.00 | 0.00 | 13 | 1025.3 |
| 20260506185746 | 6 | 360 | 19.3 | 29.0 | 0.00 | 0.00 | 0.00 | 13 | 1025.0 |
| 20260506182741 | 7 | 360 | 17.7 | 30.6 | 0.00 | 0.00 | 0.00 | 13 | 1024.8 |
| 20260506175744 | 7 | 360 | 19.3 | 35.4 | 0.00 | 0.00 | 0.00 | 13 | 1024.6 |
| 20260506172745 | 7 | 292 | 24.1 | 32.2 | 0.00 | 0.00 | 0.00 | 13 | 1024.5 |
| 20260506165743 | 7 | 315 | 19.3 | 37.0 | 0.00 | 0.00 | 0.00 | 13 | 1024.5 |
| 20260506162748 | 8 | 360 | 24.1 | 30.6 | 0.00 | 0.00 | 0.00 | 13 | 1024.4 |
| 20260506155746 | 8 | 270 | 19.3 | 32.2 | 0.00 | 0.00 | 0.00 | 13 | 1024.5 |
| 20260506152744 | 9 | 360 | 16.1 | 35.4 | 0.00 | 0.00 | 0.00 | 13 | 1024.5 |
| 20260506145743 | 8 | 360 | 17.7 | 30.6 | 0.00 | 0.00 | 0.00 | 13 | 1024.8 |
| 20260506142743 | 8 | 360 | 16.1 | 24.1 | 0.00 | 0.00 | 0.00 | 13 | 1024.9 |
| 20260506135745 | 9 | 360 | 12.9 | 22.5 | 0.00 | 0.00 | 0.00 | 13 | 1024.8 |
| 20260506132746 | 10 | 270 | 9.7 | 19.3 | 0.00 | 0.00 | 0.00 | 13 | 1024.9 |